Terminal Aerodrome Forecast
Issued by NWS

Home | Current Version | Previous Version | Text Only | Print | Product List | Glossary On
Versions: 1 2 3 4 5 6 7 8 9 10 11 12 13 14 15 16 17 18 19 20 21 22 23 24 25 26 27 28 29
000
FTUS44 KEWX 282325
TAFSSF
TAF
KSSF 282325Z 2900/2924 13009KT P6SM VCSH SCT040
     FM290400 12010KT P6SM OVC015
     FM290700 12007KT P6SM OVC007
     FM291200 10005KT 5SM BR OVC004
     FM291500 12007KT P6SM OVC012
     FM291700 13011KT P6SM BKN040=

USA.gov is the U.S. government's official web portal to all federal, state and local government web resources and services.